Back to catalog

STARLINK-32788

AliveCommunicationsVLEO
NORAD 62502·PAYLOAD·🇺🇸 United States

Launched Jan 6, 2025 from Cape Canaveral Space Force Station

Loading…

Next Passes (next 24 hours)

TLE

FreshSource: CelesTrak SupGP

Epoch: Sep 15, 2026, 02:04 UTC

1 62502C 25003R   26258.08659722  .00030113  00000+0  10906-2 0  2580
2 62502  43.0013 299.2731 0001680 264.1780 265.5118 15.27566799    10

Track STARLINK-32788 in real time with AllMySat

Download on the App Store